Torna al catalogo

STARLINK-35714

AttivoComunicazioniVLEO
NORAD 66214·PAYLOAD·🇺🇸 United States

Lanciato Oct 28, 2025 da Vandenberg Space Force Base

Loading…

Prossimi Passaggi (prossime 24 ore)

TLE

AggiornatoSource: CelesTrak SupGP

Epoca: Sep 14, 2026, 23:07 UTC

1 66214C 25244J   26257.96368056  .00039398  00000+0  11643-2 0  2576
2 66214  53.1587  69.2718 0001279  87.1360 111.0312 15.34363881    19

Traccia STARLINK-35714 in tempo reale con AllMySat

Download on the App Store